カタログに戻る

SERVIS 2 DEB

運用中LEO
NORAD 43393·DEBRIS·🇷🇺 Russia

打ち上げ Jun 2, 2010 から Plesetsk Cosmodrome

Loading…

次のパス (今後24時間)

TLE

最新Source: Space-Track

元期: Sep 14, 2026, 10:45 UTC

1 43393U 10023C   26257.44817664  .00003429  00000-0  55835-2 0  9996
2 43393 100.5890 252.4142 0020588  72.4752 287.8626 13.48570719622528

AllMySatでSERVIS 2 DEBをリアルタイム追跡

Download on the App Store